When you browse on this site, cookies collect data to enhance your experience and personalize the content and advertising you see.
Visit our Privacy Policy to learn more. By continuing to use the site, you agree to this use of cookies and data.
  • In Hungary
  • List of Countries
  • For 7 days
  • Water Temperature
  • Satellite Maps
  • Weather Map
  • News
  • Weather Widgets
  • user-avatar
    Login

    Hourly Weather Ioannina

    Today, 19 January, Saturday

    Time Temperature Precipitation Wind Pressure Humidity
    00:00 +4°C° 0.2 mm 1 mps 686 mmHg 96%
    01:00 +4°C° 0 mm 1 mps 685 mmHg 95%
    02:00 +4°C° 0.2 mm 1 mps 685 mmHg 95%
    03:00 +4°C° 0.2 mm 1 mps 685 mmHg 94%
    04:00 +4°C° 0.2 mm 1 mps 685 mmHg 94%
    05:00 +4°C° 0.5 mm 1 mps 685 mmHg 94%
    06:00 +4°C° 0.5 mm 1 mps 685 mmHg 94%
    07:00 +4°C° 0 mm 1 mps 685 mmHg 94%
    08:00 +4°C° 0.6 mm 1 mps 685 mmHg 93%
    09:00 +5°C° 0.6 mm 1 mps 685 mmHg 92%
    10:00 +6°C° 0.6 mm 1 mps 686 mmHg 91%
    11:00 +6°C° 0.3 mm 1 mps 686 mmHg 89%
    12:00 +7°C° 0.3 mm 1 mps 685 mmHg 87%
    13:00 +7°C° 0.3 mm 2 mps 685 mmHg 85%
    14:00 +7°C° 0.3 mm 1 mps 685 mmHg 87%
    15:00 +7°C° 0.3 mm 1 mps 685 mmHg 90%
    16:00 +6°C° 0.3 mm 1 mps 684 mmHg 92%
    17:00 +6°C° 0.4 mm 1 mps 684 mmHg 92%
    18:00 +4°C° 0.4 mm 2 mps 684 mmHg 93%
    19:00 +4°C° 0.4 mm 2 mps 684 mmHg 93%
    20:00 +3°C° 0.5 mm 2 mps 684 mmHg 93%
    21:00 +3°C° 0.5 mm 2 mps 684 mmHg 93%
    22:00 +4°C° 0.5 mm 1 mps 684 mmHg 92%
    23:00 +3°C° 0.2 mm 2 mps 684 mmHg 92%

    Tomorrow, 20 January, Sunday

    Time Temperature Precipitation Wind Pressure Humidity
    00:00 +3°C° 0.2 mm 2 mps 684 mmHg 92%
    01:00 +3°C° 0.2 mm 2 mps 684 mmHg 92%
    02:00 +3°C° 0.1 mm 2 mps 684 mmHg 92%
    03:00 +3°C° 0.1 mm 2 mps 684 mmHg 93%
    04:00 +2°C° 0.1 mm 2 mps 683 mmHg 94%
    05:00 +3°C° 0.6 mm 2 mps 683 mmHg 94%
    06:00 +3°C° 0.6 mm 2 mps 683 mmHg 94%
    07:00 +4°C° 0.6 mm 1 mps 683 mmHg 94%
    08:00 +4°C° 0.1 mm 2 mps 684 mmHg 92%
    09:00 +5°C° 0.1 mm 2 mps 684 mmHg 89%
    10:00 +5°C° 0.1 mm 2 mps 685 mmHg 87%
    11:00 +6°C° 0.1 mm 2 mps 684 mmHg 84%
    12:00 +6°C° 0.1 mm 2 mps 684 mmHg 81%
    13:00 +7°C° 0.1 mm 2 mps 684 mmHg 78%
    14:00 +7°C° 0.1 mm 1 mps 684 mmHg 80%
    15:00 +7°C° 0.1 mm 1 mps 684 mmHg 82%
    16:00 +6°C° 0.1 mm 1 mps 683 mmHg 85%
    17:00 +5°C° 0 mm 1 mps 683 mmHg 86%
    18:00 +4°C° 0 mm 1 mps 683 mmHg 86%
    19:00 +3°C° 0 mm 1 mps 683 mmHg 87%
    20:00 +3°C° 0 mm 1 mps 684 mmHg 85%
    21:00 +3°C° 0 mm 1 mps 684 mmHg 83%
    22:00 +2°C° 0 mm 1 mps 684 mmHg 81%
    23:00 +2°C° 0 mm 1 mps 684 mmHg 79%

    Day after tomorrow, 21 January, Monday

    Time Temperature Precipitation Wind Pressure Humidity
    00:00 +2°C° 0 mm 1 mps 684 mmHg 77%
    01:00 +2°C° 0 mm 1 mps 684 mmHg 75%
    02:00 +1°C° 0 mm 1 mps 684 mmHg 75%
    03:00 +1°C° 0 mm 1 mps 684 mmHg 74%
    04:00 +1°C° 0 mm 1 mps 683 mmHg 73%
    05:00 +1°C° 0 mm 1 mps 684 mmHg 74%
    06:00 +1°C° 0 mm 1 mps 684 mmHg 75%
    07:00 +1°C° 0 mm 1 mps 684 mmHg 76%
    08:00 +3°C° 0 mm 1 mps 685 mmHg 74%
    09:00 +5°C° 0 mm 1 mps 685 mmHg 71%
    10:00 +8°C° 0 mm 1 mps 686 mmHg 69%
    11:00 +8°C° 0 mm 1 mps 686 mmHg 68%
    12:00 +9°C° 0 mm 1 mps 685 mmHg 67%
    13:00 +9°C° 0 mm 1 mps 685 mmHg 66%
    14:00 +8°C° 0 mm 1 mps 685 mmHg 70%
    15:00 +7°C° 0 mm 1 mps 685 mmHg 75%
    16:00 +7°C° 0 mm 1 mps 684 mmHg 80%
    17:00 +6°C° 0 mm 1 mps 684 mmHg 82%
    18:00 +5°C° 0 mm 1 mps 684 mmHg 84%
    19:00 +4°C° 0 mm 1 mps 684 mmHg 86%
    20:00 +4°C° 0 mm 1 mps 684 mmHg 85%
    21:00 +4°C° 0 mm 1 mps 684 mmHg 84%
    22:00 +3°C° 0 mm 1 mps 684 mmHg 84%
    23:00 +3°C° 0 mm 1 mps 684 mmHg 84%

    22 January, Tuesday

    Time Temperature Precipitation Wind Pressure Humidity
    00:00 +3°C° 0 mm 1 mps 684 mmHg 84%
    01:00 +2°C° 0 mm 2 mps 684 mmHg 84%
    02:00 +2°C° 0.3 mm 2 mps 683 mmHg 85%
    03:00 +2°C° 0.3 mm 2 mps 683 mmHg 87%
    04:00 +2°C° 0.3 mm 2 mps 682 mmHg 88%
    05:00 +3°C° 0.3 mm 2 mps 682 mmHg 88%
    06:00 +3°C° 0.3 mm 2 mps 682 mmHg 88%
    07:00 +3°C° 0.3 mm 2 mps 682 mmHg 89%
    08:00 +3°C° 0.6 mm 2 mps 682 mmHg 89%
    09:00 +4°C° 0.6 mm 2 mps 682 mmHg 89%
    10:00 +4°C° 0.6 mm 2 mps 681 mmHg 89%
    11:00 +5°C° 0.4 mm 2 mps 681 mmHg 87%
    12:00 +5°C° 0.4 mm 3 mps 680 mmHg 85%
    13:00 +7°C° 0.4 mm 3 mps 680 mmHg 83%
    14:00 +5°C° 0.2 mm 3 mps 679 mmHg 85%
    15:00 +6°C° 0.2 mm 2 mps 678 mmHg 87%
    16:00 +5°C° 0.2 mm 2 mps 678 mmHg 89%
    17:00 +5°C° 0.7 mm 2 mps 677 mmHg 91%
    18:00 +4°C° 0.7 mm 2 mps 677 mmHg 92%
    19:00 +4°C° 0.7 mm 2 mps 677 mmHg 94%
    20:00 +4°C° 1.8 mm 2 mps 677 mmHg 95%
    21:00 +4°C° 1.8 mm 2 mps 676 mmHg 95%
    22:00 +3°C° 1.8 mm 3 mps 676 mmHg 96%
    23:00 +3°C° 1.2 mm 3 mps 676 mmHg 96%

    23 January, Wednesday

    Time Temperature Precipitation Wind Pressure Humidity
    00:00 +3°C° 1.2 mm 3 mps 675 mmHg 97%
    01:00 +3°C° 1.2 mm 3 mps 675 mmHg 97%
    02:00 +3°C° 1.2 mm 4 mps 674 mmHg 96%
    03:00 +3°C° 1.2 mm 4 mps 674 mmHg 95%
    04:00 +3°C° 1.2 mm 4 mps 673 mmHg 95%
    05:00 +2°C° 1.3 mm 5 mps 674 mmHg 95%
    06:00 +2°C° 1.3 mm 5 mps 674 mmHg 95%
    07:00 +2°C° 1.3 mm 5 mps 674 mmHg 95%
    08:00 +2°C° 1.1 mm 5 mps 674 mmHg 93%
    09:00 +3°C° 1.1 mm 4 mps 675 mmHg 92%
    10:00 +4°C° 1.1 mm 4 mps 675 mmHg 91%
    11:00 +4°C° 0.5 mm 4 mps 675 mmHg 89%
    12:00 +4°C° 0.5 mm 3 mps 675 mmHg 88%
    13:00 +4°C° 0.5 mm 3 mps 675 mmHg 86%
    14:00 +4°C° 0.3 mm 3 mps 675 mmHg 87%
    15:00 +4°C° 0.3 mm 2 mps 674 mmHg 88%
    16:00 +4°C° 0.3 mm 2 mps 674 mmHg 89%
    17:00 +3°C° 0.1 mm 2 mps 674 mmHg 90%
    18:00 +3°C° 0.1 mm 1 mps 675 mmHg 90%
    19:00 +2°C° 0.1 mm 1 mps 675 mmHg 91%
    20:00 +2°C° 0 mm 1 mps 675 mmHg 89%
    21:00 +2°C° 0 mm 1 mps 675 mmHg 87%
    22:00 +2°C° 0 mm 1 mps 675 mmHg 85%
    23:00 +1°C° 0 mm 1 mps 674 mmHg 83%

    24 January, Thursday

    Time Temperature Precipitation Wind Pressure Humidity
    00:00 +1°C° 0 mm 1 mps 674 mmHg 81%
    01:00 +1°C° 0 mm 1 mps 674 mmHg 79%
    02:00 +1°C° 0 mm 1 mps 673 mmHg 78%
    03:00 +1°C° 0 mm 1 mps 673 mmHg 76%
    04:00 +1°C° 0 mm 1 mps 673 mmHg 75%
    05:00 +1°C° 0 mm 1 mps 673 mmHg 76%
    06:00 +1°C° 0 mm 1 mps 672 mmHg 77%
    07:00 -1°C° 0 mm 2 mps 672 mmHg 78%
    08:00 +2°C° 0 mm 2 mps 672 mmHg 76%
    09:00 +3°C° 0 mm 2 mps 672 mmHg 74%
    10:00 +5°C° 0 mm 2 mps 672 mmHg 73%
    11:00 +5°C° 0.2 mm 2 mps 672 mmHg 74%
    12:00 +5°C° 0.2 mm 2 mps 672 mmHg 75%
    13:00 +5°C° 0.2 mm 2 mps 672 mmHg 76%
    14:00 +5°C° 1.1 mm 2 mps 672 mmHg 82%
    15:00 +4°C° 1.1 mm 2 mps 672 mmHg 87%
    16:00 +4°C° 1.1 mm 1 mps 672 mmHg 93%
    17:00 +3°C° 0.8 mm 2 mps 673 mmHg 94%
    18:00 +3°C° 0.8 mm 2 mps 673 mmHg 95%
    19:00 +3°C° 0.8 mm 2 mps 674 mmHg 96%
    20:00 +3°C° 0.6 mm 2 mps 674 mmHg 97%
    21:00 +2°C° 0.6 mm 2 mps 674 mmHg 97%
    22:00 +2°C° 0.6 mm 2 mps 674 mmHg 97%
    23:00 +2°C° 0.5 mm 2 mps 674 mmHg 96%
    Show more